カタログに戻る

CZ-6A DEB

運用中SSO
NORAD 54925·DEBRIS·🇨🇳 China

打ち上げ Nov 11, 2022 から Taiyuan Satellite Launch Center

Loading…

次のパス (今後24時間)

TLE

最新Source: Space-Track

元期: Sep 14, 2026, 11:07 UTC

1 54925U 22151RN  26257.46336005  .00000681  00000-0  38125-3 0  9992
2 54925  98.8399 261.7824 0042244  71.5963 288.9796 14.13553367197307

AllMySatでCZ-6A DEBをリアルタイム追跡

Download on the App Store